Location: Newark
(45.5000°N, 11.4167°E)
Time: 22:46:36
(UTC+00:00)

Altair - Pass Details

Date: 29 August 2019
Orbit: 1501 x 1683 km, 47.2° (Epoch: 17 September)

Event Time Altitude Azimuth Distance (km) Brightness Sun altitude
Exits shadow 02:28:45 23° 260° (W) 2,952 8.5 -20.0°
Maximum altitude 02:35:40 85° 348° (NNW) 1,603 7.5 -19.0°
Drops below altitude 10° 02:45:13 10° 79° (E) 3,733 10.5 -17.7°
Sets 02:48:13 0° 80° (E) 4,696 11.3 -17.3°
